Flag for United Kingdom Weather past 2 weeks in Swansea, Wales, United Kingdom

Now
51 °F

Cool.


Feels Like: 48 °F
Forecast: 40 / 54 °F
Wind: 7 mph from Northwest

Location: Mumbles

Current Time: Apr 25, 2015 at 9:46:17 PM

Latest Report: Apr 25, 2015 at 9:00 PM


Visibility: N/A

Pressure: 29.72 "Hg

Humidity: 92%

Dew point: 48 °F

Location of SwanseaLocation

Historic Weather in Swansea — Graph

°F

Swansea temperature yesterday

Maximum temperature yesterday: 54 °F (at 2:00 PM)
Minimum temperature yesterday: 47 °F (at 4:00 AM)
Average temperature yesterday: 50 °F

Past Weeks' High & Low Weather Summary

 TemperatureHumidityPressure
High62 °F (Apr 22, 4:00 PM)100% (Apr 25, 4:00 AM)30.58 "Hg (Apr 25, 4:00 AM)
Low41 °F (Apr 19, 7:00 AM)45% (Apr 22, 2:00 PM)29.68 "Hg (Apr 25, 6:00 AM)
Average51 °F77%30.20 "Hg
* Reported Apr 10 8:00 PM — Apr 25 8:00 PM, Swansea, Weather by CustomWeather, © 2015

Note: Actual official high and low records may vary slightly from our data, if they occured in-between our weather recording intervals... More about our weather records

Advertising

Swansea weather history for previous 24 hours

 ConditionsComfort  
Time TempWeatherWind HumidityBarometerVisibility
8:00 PM
Sat, Apr 25
51 °FCool.10 mph92%29.71 "HgN/A
7:00 PM52 °FCool.13 mph88%29.70 "HgN/A
6:00 PM53 °FCool.12 mph85%29.70 "HgN/A
5:00 PM53 °FCool.13 mph84%29.69 "HgN/A
4:00 PM54 °FCool.10 mph81%29.70 "HgN/A
3:00 PM56 °FCool.15 mph80%29.70 "HgN/A
2:00 PM56 °FCool.15 mph82%29.71 "HgN/A
1:00 PM56 °FCool.18 mph85%29.71 "HgN/A
12:00 PM53 °FCool.18 mph95%29.71 "HgN/A
11:00 AM51 °FCool.16 mph99%29.71 "HgN/A
10:00 AM51 °FCool.20 mph99%29.70 "HgN/A
9:00 AM51 °FCool.20 mph100%29.70 "HgN/A
8:00 AM50 °FCool.18 mph99%29.69 "HgN/A
7:00 AM50 °FCool.17 mph99%29.69 "HgN/A
6:00 AM50 °FCool.20 mph99%29.68 "HgN/A
5:00 AM50 °FCool.17 mph99%29.69 "HgN/A
4:00 AM50 °FCool.7 mph100%29.70 "HgN/A
3:00 AM50 °FCool.15 mph99%29.71 "HgN/A
2:00 AM51 °FCool.15 mph99%29.72 "HgN/A
12:00 AM51 °FCool.15 mph98%29.75 "HgN/A
11:00 PM
Fri, Apr 24
51 °FCool.17 mph99%29.76 "HgN/A
9:00 PM51 °FCool.18 mph99%29.78 "HgN/A
Weather by CustomWeather, © 2015

See weather overviewHow to use our weather pages